Volver al catálogo

CZ-6A DEB

ActivoPO
NORAD 60651·DEBRIS·🇨🇳 China

Lanzado Aug 6, 2024 desde Taiyuan Satellite Launch Center

Loading…

Próximos Pases (próximas 24 horas)

TLE

ActualizadoSource: Space-Track

Época: Sep 14, 2026, 23:11 UTC

1 60651U 24140BC  26257.96601234  .00000244  00000-0  63239-4 0  9999
2 60651  88.8833 250.1900 0076991 355.6246   4.4275 14.44807545110789

Sigue CZ-6A DEB en tiempo real con AllMySat

Download on the App Store